Regional Weather Roundup
Issued by NWS

Home | Current Version | Previous Version | Text Only | Print | Product List | Glossary On
Versions: 1 2 3 4 5 6 7 8 9 10 11 12 13 14 15 16 17 18 19 20 21 22 23 24 25 26 27 28 29 30 31 32 33 34 35 36 37 38 39 40 41 42 43 44 45 46 47 48 49 50
000
ASUS45 KSLC 011510
RWRUT

UTAH REGIONAL WEATHER ROUNDUP
NATIONAL WEATHER SERVICE SALT LAKE CITY UT
800 AM MST SUN FEB 01 2015

UTZ001>011-023>025-011600-

NORTHERN UTAH

CITY           SKY/WX    TMP DP  RH WIND       PRES   REMARKS
BRIGHAM CITY   CLEAR     27  24  90 CALM      30.23S
HILL AFB       CLEAR     28  21  74 SE12      30.21R WCI  18
LOGAN          PTCLDY    23  20  88 CALM      30.23R
OGDEN          CLEAR     27  22  81 S7        30.21R WCI  19
PROVO AIRPORT  CLEAR     41  19  42 E3        30.23R
SALT LAKE CITY PTCLDY    28  24  85 SE6       30.21S WCI  22
VERNAL         CLEAR     24  19  81 SW5       30.13R WCI  18
WENDOVER       PTCLDY    25  18  74 CALM      30.21S
HEBER CITY     PTCLDY    18  16  93 CALM      30.21S
WEST JORDAN    CLEAR     28  27  93 S5        30.21S WCI  23

$$

UTZ012>022-026-027-011600-

SOUTHERN/CENTRAL UTAH

CITY           SKY/WX    TMP DP  RH WIND       PRES   REMARKS
BLANDING       CLEAR     27  27  99 CALM      30.20R
BRYCE CANYON   CLEAR     21  18  88 W8        30.21R WCI  11
CEDAR CITY     CLEAR     24  20  84 E3        30.22R
DELTA            N/A     23  23  99 SW5       30.23S WCI  17
HANKSVILLE     CLOUDY    27  27 100 CALM      30.18R VSB 1/2
MILFORD        CLEAR     23  20  88 S5        30.22S WCI  17
MOAB/CYNLANDS  CLOUDY    34  34 100 VRB3      30.14R
PRICE          CLEAR     35  15  44 N6        30.13S WCI  30
ST GEORGE      MOSUNNY   39  28  65 CALM      30.22R
KANAB          CLEAR     27  27 100 N5        30.24R WCI  21

$$

REGIONAL REPORTS     COLORADO/ARIZONA

CITY           SKY/WX    TMP DP  RH WIND       PRES   REMARKS
CRAIG, CO      CLOUDY    17  14  88 CALM      30.15R
GRAND JUNCTION MOCLDY    29  28  96 CALM      30.16R
RIFLE          PTCLDY    21  18  88 CALM      30.17R
MONTROSE       CLEAR     27  22  81 SE7       30.18R WCI  19
CORTEZ         CLEAR     25  21  85 S5        30.11R WCI  19
PAGE, AZ       NOT AVBL
GRAND CANYON   CLEAR     20  18  92 NE5       30.19R WCI  13
KINGMAN        CLEAR     38  34  85 E8        30.15R WCI  32
FLAGSTAFF      CLEAR     32  24  72 SE8       30.15R WCI  25

$$

REGIONAL REPORTS    NEVADA/IDAHO/WYOMING

CITY           SKY/WX    TMP DP  RH WIND       PRES   REMARKS
LAS VEGAS, NV  CLEAR     44  36  73 SW7       30.14R
ELY            PTCLDY    19  15  84 S9        30.23R WCI   8
ELKO           PTCLDY    22  19  89 CALM      30.23R
POCATELLO, ID  MOCLDY    29  29 100 NE5       30.22S WCI  24
BURLEY         CLEAR     26  23  88 NE7       30.20R WCI  18
EVANSTON, WY   CLEAR     22  17  81 SW8       30.16R WCI  12
ROCK SPRINGS   CLOUDY    20  11  68 W8        30.12R WCI  10

$$


USA.gov is the U.S. government's official web portal to all federal, state and local government web resources and services.